Time,TemperatureF,DewpointF,PressureIn,WindDirection,WindDirectionDegrees,WindSpeedMPH,WindSpeedGustMPH,Humidity,HourlyPrecipIn,Conditions,Clouds,dailyrainin,SoftwareType,DateUTC
2014-04-01 00:04:00,64.3,60.3,30.01,East,86,11.0,11.0,87,0.00,,,0.00,Wunderground v.1.15,2014-04-01 05:04:00,
2014-04-01 00:10:00,64.4,60.4,30.01,ESE,109,4.0,5.0,87,0.00,,,0.00,Wunderground v.1.15,2014-04-01 05:10:00,
2014-04-01 00:15:00,64.3,60.7,30.01,NNE,18,6.0,8.0,88,0.00,,,0.00,Wunderground v.1.15,2014-04-01 05:15:00,
2014-04-01 00:21:00,64.2,60.6,30.01,ESE,108,5.0,5.0,88,0.00,,,0.00,Wunderground v.1.15,2014-04-01 05:21:00,
2014-04-01 00:26:00,64.1,60.5,30.01,East,99,3.0,9.0,88,0.00,,,0.00,Wunderground v.1.15,2014-04-01 05:26:00,
2014-04-01 00:32:00,64.0,60.4,30.01,East,82,4.0,4.0,88,0.00,,,0.00,Wunderground v.1.15,2014-04-01 05:32:00,
2014-04-01 00:38:00,63.9,60.6,30.01,East,95,7.0,9.0,89,0.00,,,0.00,Wunderground v.1.15,2014-04-01 05:38:00,
2014-04-01 00:44:00,63.9,60.6,30.01,ESE,112,5.0,7.0,89,0.00,,,0.00,Wunderground v.1.15,2014-04-01 05:44:00,
2014-04-01 00:50:00,63.8,60.5,30.01,SE,136,8.0,8.0,89,0.00,,,0.00,Wunderground v.1.15,2014-04-01 05:50:00,
2014-04-01 00:56:00,63.7,60.4,30.01,East,81,8.0,11.0,89,0.00,,,0.00,Wunderground v.1.15,2014-04-01 05:56:00,
2014-04-01 01:02:00,63.7,60.7,30.01,ENE,58,3.0,6.0,90,0.00,,,0.00,Wunderground v.1.15,2014-04-01 06:02:00,
2014-04-01 01:08:00,63.6,60.6,30.01,East,97,2.0,10.0,90,0.00,,,0.00,Wunderground v.1.15,2014-04-01 06:08:00,
2014-04-01 01:14:00,63.5,60.5,30.01,SE,144,3.0,6.0,90,0.00,,,0.00,Wunderground v.1.15,2014-04-01 06:14:00,
2014-04-01 01:20:00,63.4,60.4,30.01,East,94,3.0,5.0,90,0.00,,,0.00,Wunderground v.1.15,2014-04-01 06:20:00,
2014-04-01 01:26:00,63.2,60.5,30.01,NW,317,1.0,5.0,91,0.00,,,0.00,Wunderground v.1.15,2014-04-01 06:26:00,
2014-04-01 01:32:00,63.1,60.4,30.01,ESE,113,2.0,5.0,91,0.00,,,0.00,Wunderground v.1.15,2014-04-01 06:32:00,
2014-04-01 01:38:00,63.0,60.3,30.01,East,96,4.0,5.0,91,0.00,,,0.00,Wunderground v.1.15,2014-04-01 06:38:00,
2014-04-01 01:44:00,62.9,60.5,30.01,SE,140,6.0,6.0,92,0.00,,,0.00,Wunderground v.1.15,2014-04-01 06:44:00,
2014-04-01 01:50:00,62.8,60.4,30.01,NE,50,2.0,4.0,92,0.00,,,0.00,Wunderground v.1.15,2014-04-01 06:50:00,
2014-04-01 01:56:00,62.7,60.3,30.01,SE,145,3.0,5.0,92,0.00,,,0.00,Wunderground v.1.15,2014-04-01 06:56:00,
2014-04-01 02:01:00,62.7,60.3,30.01,ESE,104,6.0,6.0,92,0.00,,,0.00,Wunderground v.1.15,2014-04-01 07:01:00,
2014-04-01 02:06:00,62.7,60.3,30.01,ESE,103,11.0,13.0,92,0.00,,,0.00,Wunderground v.1.15,2014-04-01 07:06:00,
2014-04-01 02:11:00,62.8,60.4,30.02,ESE,122,2.0,6.0,92,0.00,,,0.00,Wunderground v.1.15,2014-04-01 07:11:00,
2014-04-01 02:16:00,62.8,60.7,30.01,SE,134,5.0,9.0,93,0.00,,,0.00,Wunderground v.1.15,2014-04-01 07:16:00,
2014-04-01 02:21:00,62.8,60.7,30.02,East,82,2.0,5.0,93,0.00,,,0.00,Wunderground v.1.15,2014-04-01 07:21:00,
2014-04-01 02:26:00,62.9,60.8,30.02,SE,124,2.0,9.0,93,0.00,,,0.00,Wunderground v.1.15,2014-04-01 07:26:00,
2014-04-01 02:31:00,62.9,60.8,30.01,SE,130,3.0,5.0,93,0.00,,,0.00,Wunderground v.1.15,2014-04-01 07:31:00,
2014-04-01 02:36:00,63.0,60.9,30.01,ESE,108,4.0,10.0,93,0.00,,,0.00,Wunderground v.1.15,2014-04-01 07:36:00,
2014-04-01 02:41:00,63.0,60.9,30.02,ESE,105,4.0,8.0,93,0.00,,,0.00,Wunderground v.1.15,2014-04-01 07:41:00,
2014-04-01 02:46:00,63.0,60.9,30.02,SSE,162,3.0,8.0,93,0.00,,,0.00,Wunderground v.1.15,2014-04-01 07:46:00,
2014-04-01 02:51:00,63.1,61.0,30.02,ESE,108,5.0,7.0,93,0.00,,,0.00,Wunderground v.1.15,2014-04-01 07:51:00,
2014-04-01 02:56:00,63.1,61.0,30.01,NE,55,5.0,9.0,93,0.00,,,0.00,Wunderground v.1.15,2014-04-01 07:56:00,
2014-04-01 03:01:00,63.1,61.0,30.01,SE,134,1.0,4.0,93,0.00,,,0.00,Wunderground v.1.15,2014-04-01 08:01:00,
2014-04-01 03:06:00,63.2,61.1,30.01,ESE,103,6.0,7.0,93,0.00,,,0.00,Wunderground v.1.15,2014-04-01 08:06:00,
2014-04-01 03:11:00,63.2,61.1,30.01,ESE,115,2.0,3.0,93,0.00,,,0.00,Wunderground v.1.15,2014-04-01 08:11:00,
2014-04-01 03:16:00,63.2,61.1,30.01,SE,138,2.0,8.0,93,0.00,,,0.00,Wunderground v.1.15,2014-04-01 08:16:00,
2014-04-01 03:21:00,63.3,61.2,30.01,SSE,151,3.0,4.0,93,0.00,,,0.00,Wunderground v.1.15,2014-04-01 08:21:00,
2014-04-01 03:26:00,63.3,61.2,30.01,SE,126,2.0,12.0,93,0.00,,,0.00,Wunderground v.1.15,2014-04-01 08:26:00,
2014-04-01 03:31:00,63.3,61.2,30.00,East,81,9.0,10.0,93,0.00,,,0.00,Wunderground v.1.15,2014-04-01 08:31:00,
2014-04-01 03:36:00,63.4,61.3,30.00,ESE,120,4.0,10.0,93,0.00,,,0.00,Wunderground v.1.15,2014-04-01 08:36:00,
2014-04-01 03:41:00,63.4,61.3,30.00,East,99,5.0,6.0,93,0.00,,,0.00,Wunderground v.1.15,2014-04-01 08:41:00,
2014-04-01 03:46:00,63.4,61.3,30.00,SE,143,5.0,8.0,93,0.00,,,0.00,Wunderground v.1.15,2014-04-01 08:46:00,
2014-04-01 03:51:00,63.5,61.4,30.00,ESE,113,4.0,5.0,93,0.00,,,0.00,Wunderground v.1.15,2014-04-01 08:51:00,
2014-04-01 03:56:00,63.5,61.4,30.00,ESE,120,3.0,5.0,93,0.00,,,0.00,Wunderground v.1.15,2014-04-01 08:56:00,
2014-04-01 04:01:00,63.5,61.4,30.00,SE,127,5.0,10.0,93,0.00,,,0.00,Wunderground v.1.15,2014-04-01 09:01:00,
2014-04-01 04:06:00,63.6,61.5,30.00,East,87,3.0,11.0,93,0.00,,,0.00,Wunderground v.1.15,2014-04-01 09:06:00,
2014-04-01 04:11:00,63.6,61.5,30.00,East,91,4.0,12.0,93,0.00,,,0.00,Wunderground v.1.15,2014-04-01 09:11:00,
2014-04-01 04:16:00,63.6,61.5,30.00,SE,128,0.0,12.0,93,0.00,,,0.00,Wunderground v.1.15,2014-04-01 09:16:00,
2014-04-01 04:21:00,63.7,61.6,30.00,ESE,105,3.0,6.0,93,0.00,,,0.00,Wunderground v.1.15,2014-04-01 09:21:00,
2014-04-01 04:26:00,63.7,61.6,30.00,SSE,149,3.0,7.0,93,0.00,,,0.00,Wunderground v.1.15,2014-04-01 09:26:00,
2014-04-01 04:31:00,63.7,61.6,30.00,East,91,2.0,3.0,93,0.00,,,0.00,Wunderground v.1.15,2014-04-01 09:31:00,
2014-04-01 04:36:00,63.8,61.7,30.00,East,90,4.0,6.0,93,0.00,,,0.00,Wunderground v.1.15,2014-04-01 09:36:00,
2014-04-01 04:41:00,63.8,61.7,30.00,SE,139,4.0,4.0,93,0.00,,,0.00,Wunderground v.1.15,2014-04-01 09:41:00,
2014-04-01 04:46:00,63.8,61.7,30.00,East,100,2.0,4.0,93,0.00,,,0.00,Wunderground v.1.15,2014-04-01 09:46:00,
2014-04-01 04:51:00,63.9,61.8,30.00,East,95,6.0,7.0,93,0.00,,,0.00,Wunderground v.1.15,2014-04-01 09:51:00,
2014-04-01 04:56:00,63.9,61.8,30.00,East,81,4.0,8.0,93,0.00,,,0.00,Wunderground v.1.15,2014-04-01 09:56:00,
2014-04-01 05:02:00,63.9,61.8,30.00,ESE,123,1.0,4.0,93,0.00,,,0.00,Wunderground v.1.15,2014-04-01 10:02:00,
2014-04-01 05:07:00,63.9,61.8,30.00,East,87,4.0,7.0,93,0.00,,,0.00,Wunderground v.1.15,2014-04-01 10:07:00,
2014-04-01 05:12:00,64.0,61.9,30.00,SE,127,1.0,3.0,93,0.00,,,0.00,Wunderground v.1.15,2014-04-01 10:12:00,
2014-04-01 05:17:00,64.0,61.9,30.00,ESE,114,3.0,8.0,93,0.00,,,0.00,Wunderground v.1.15,2014-04-01 10:17:00,
2014-04-01 05:22:00,64.0,61.9,30.00,ESE,123,1.0,5.0,93,0.00,,,0.00,Wunderground v.1.15,2014-04-01 10:22:00,
2014-04-01 05:27:00,64.0,61.9,30.00,ESE,110,3.0,8.0,93,0.00,,,0.00,Wunderground v.1.15,2014-04-01 10:27:00,
2014-04-01 05:32:00,64.1,62.0,30.00,East,101,1.0,4.0,93,0.00,,,0.00,Wunderground v.1.15,2014-04-01 10:32:00,
2014-04-01 05:37:00,64.1,62.0,30.00,ESE,103,2.0,5.0,93,0.00,,,0.00,Wunderground v.1.15,2014-04-01 10:37:00,
2014-04-01 05:42:00,64.1,62.0,30.00,ESE,120,2.0,3.0,93,0.00,,,0.00,Wunderground v.1.15,2014-04-01 10:42:00,
2014-04-01 05:47:00,64.1,62.0,30.00,ESE,123,0.0,4.0,93,0.00,,,0.00,Wunderground v.1.15,2014-04-01 10:47:00,
2014-04-01 05:52:00,64.1,62.0,30.00,East,80,2.0,3.0,93,0.00,,,0.00,Wunderground v.1.15,2014-04-01 10:52:00,
2014-04-01 05:57:00,64.2,62.1,30.00,ENE,58,3.0,4.0,93,0.00,,,0.00,Wunderground v.1.15,2014-04-01 10:57:00,
2014-04-01 06:02:00,64.2,62.1,30.01,ESE,109,1.0,2.0,93,0.00,,,0.00,Wunderground v.1.15,2014-04-01 11:02:00,
2014-04-01 06:07:00,64.2,62.1,30.01,SE,130,0.0,5.0,93,0.00,,,0.00,Wunderground v.1.15,2014-04-01 11:07:00,
2014-04-01 06:12:00,64.3,62.2,30.01,ESE,115,1.0,4.0,93,0.00,,,0.00,Wunderground v.1.15,2014-04-01 11:12:00,
2014-04-01 06:17:00,64.3,62.2,30.01,East,96,2.0,6.0,93,0.00,,,0.00,Wunderground v.1.15,2014-04-01 11:17:00,
2014-04-01 06:22:00,64.3,62.2,30.01,East,95,2.0,4.0,93,0.00,,,0.00,Wunderground v.1.15,2014-04-01 11:22:00,
2014-04-01 06:27:00,64.3,62.2,30.01,ESE,110,2.0,4.0,93,0.00,,,0.00,Wunderground v.1.15,2014-04-01 11:27:00,
2014-04-01 06:32:00,64.3,62.2,30.02,ESE,120,1.0,4.0,93,0.00,,,0.00,Wunderground v.1.15,2014-04-01 11:32:00,
2014-04-01 06:37:00,64.3,62.2,30.02,East,97,4.0,4.0,93,0.00,,,0.00,Wunderground v.1.15,2014-04-01 11:37:00,
2014-04-01 06:42:00,64.4,62.3,30.02,East,98,1.0,2.0,93,0.00,,,0.00,Wunderground v.1.15,2014-04-01 11:42:00,
2014-04-01 06:47:00,64.4,62.3,30.02,SE,126,1.0,4.0,93,0.00,,,0.00,Wunderground v.1.15,2014-04-01 11:47:00,
2014-04-01 06:52:00,64.4,62.3,30.02,East,92,3.0,3.0,93,0.00,,,0.00,Wunderground v.1.15,2014-04-01 11:52:00,
2014-04-01 06:57:00,64.4,62.3,30.02,East,94,0.0,4.0,93,0.00,,,0.00,Wunderground v.1.15,2014-04-01 11:57:00,
2014-04-01 07:02:00,64.4,62.3,30.02,ESE,115,2.0,4.0,93,0.00,,,0.00,Wunderground v.1.15,2014-04-01 12:02:00,
2014-04-01 07:07:00,64.4,62.3,30.02,ESE,105,0.0,5.0,93,0.00,,,0.00,Wunderground v.1.15,2014-04-01 12:07:00,
2014-04-01 07:12:00,64.4,62.6,30.02,ESE,108,1.0,3.0,94,0.00,,,0.00,Wunderground v.1.15,2014-04-01 12:12:00,
2014-04-01 07:17:00,64.4,62.6,30.03,ESE,112,1.0,3.0,94,0.00,,,0.00,Wunderground v.1.15,2014-04-01 12:17:00,
2014-04-01 07:22:00,64.4,62.6,30.03,SE,140,0.0,5.0,94,0.00,,,0.00,Wunderground v.1.15,2014-04-01 12:22:00,
2014-04-01 07:27:00,64.4,62.6,30.03,ESE,108,0.0,5.0,94,0.00,,,0.00,Wunderground v.1.15,2014-04-01 12:27:00,
2014-04-01 07:32:00,64.4,62.6,30.03,East,100,0.0,3.0,94,0.00,,,0.00,Wunderground v.1.15,2014-04-01 12:32:00,
2014-04-01 07:37:00,64.5,62.7,30.04,ESE,114,3.0,5.0,94,0.00,,,0.00,Wunderground v.1.15,2014-04-01 12:37:00,
2014-04-01 07:42:00,64.5,62.7,30.04,ESE,115,1.0,3.0,94,0.00,,,0.00,Wunderground v.1.15,2014-04-01 12:42:00,
2014-04-01 07:47:00,64.5,62.7,30.04,ESE,114,2.0,3.0,94,0.00,,,0.00,Wunderground v.1.15,2014-04-01 12:47:00,
2014-04-01 07:52:00,64.6,62.8,30.04,ENE,76,1.0,4.0,94,0.00,,,0.00,Wunderground v.1.15,2014-04-01 12:52:00,
2014-04-01 07:57:00,64.6,62.8,30.04,East,93,3.0,4.0,94,0.00,,,0.00,Wunderground v.1.15,2014-04-01 12:57:00,
2014-04-01 08:02:00,64.6,62.8,30.04,ESE,120,1.0,3.0,94,0.00,,,0.00,Wunderground v.1.15,2014-04-01 13:02:00,
2014-04-01 08:07:00,64.7,62.9,30.04,East,93,2.0,3.0,94,0.00,,,0.00,Wunderground v.1.15,2014-04-01 13:07:00,
2014-04-01 08:12:00,64.7,62.9,30.04,ESE,108,0.0,2.0,94,0.00,,,0.00,Wunderground v.1.15,2014-04-01 13:12:00,
2014-04-01 08:17:00,64.8,63.0,30.05,East,91,0.0,3.0,94,0.00,,,0.00,Wunderground v.1.15,2014-04-01 13:17:00,
2014-04-01 08:22:00,64.9,63.1,30.05,East,98,3.0,4.0,94,0.00,,,0.00,Wunderground v.1.15,2014-04-01 13:22:00,
2014-04-01 08:27:00,65.0,62.9,30.05,SE,143,0.0,4.0,93,0.00,,,0.00,Wunderground v.1.15,2014-04-01 13:27:00,
2014-04-01 08:32:00,65.2,63.1,30.05,ESE,123,1.0,3.0,93,0.00,,,0.00,Wunderground v.1.15,2014-04-01 13:32:00,
2014-04-01 08:37:00,65.3,63.2,30.05,East,92,2.0,4.0,93,0.00,,,0.00,Wunderground v.1.15,2014-04-01 13:37:00,
2014-04-01 08:42:00,65.4,63.3,30.05,East,101,0.0,2.0,93,0.00,,,0.00,Wunderground v.1.15,2014-04-01 13:42:00,
2014-04-01 08:47:00,65.6,63.5,30.05,ESE,102,1.0,2.0,93,0.00,,,0.00,Wunderground v.1.15,2014-04-01 13:47:00,
2014-04-01 08:52:00,65.7,63.6,30.05,East,96,0.0,3.0,93,0.00,,,0.00,Wunderground v.1.15,2014-04-01 13:52:00,
2014-04-01 08:57:00,65.9,63.8,30.05,East,97,1.0,3.0,93,0.00,,,0.00,Wunderground v.1.15,2014-04-01 13:57:00,
2014-04-01 09:02:00,66.1,63.7,30.05,ESE,106,0.0,1.0,92,0.00,,,0.00,Wunderground v.1.15,2014-04-01 14:02:00,
2014-04-01 09:07:00,66.2,63.8,30.06,ESE,102,1.0,4.0,92,0.00,,,0.00,Wunderground v.1.15,2014-04-01 14:07:00,
2014-04-01 09:12:00,66.2,63.8,30.06,SSW,195,0.0,2.0,92,0.00,,,0.00,Wunderground v.1.15,2014-04-01 14:12:00,
2014-04-01 09:17:00,66.4,64.0,30.06,SE,131,2.0,3.0,92,0.00,,,0.00,Wunderground v.1.15,2014-04-01 14:17:00,
2014-04-01 09:22:00,66.4,63.7,30.06,East,87,1.0,5.0,91,0.00,,,0.00,Wunderground v.1.15,2014-04-01 14:22:00,
2014-04-01 09:27:00,66.5,64.1,30.06,ESE,114,0.0,5.0,92,0.00,,,0.00,Wunderground v.1.15,2014-04-01 14:27:00,
2014-04-01 09:32:00,66.6,63.9,30.06,East,101,2.0,6.0,91,0.00,,,0.00,Wunderground v.1.15,2014-04-01 14:32:00,
2014-04-01 09:37:00,66.7,64.0,30.06,ESE,108,4.0,6.0,91,0.00,,,0.00,Wunderground v.1.15,2014-04-01 14:37:00,
2014-04-01 09:42:00,66.8,64.1,30.06,ENE,78,3.0,6.0,91,0.00,,,0.00,Wunderground v.1.15,2014-04-01 14:42:00,
2014-04-01 09:47:00,67.0,64.3,30.06,SE,134,1.0,6.0,91,0.00,,,0.00,Wunderground v.1.15,2014-04-01 14:47:00,
2014-04-01 09:52:00,67.2,64.5,30.06,East,83,2.0,3.0,91,0.00,,,0.00,Wunderground v.1.15,2014-04-01 14:52:00,
2014-04-01 09:57:00,67.5,64.5,30.06,East,92,1.0,5.0,90,0.00,,,0.00,Wunderground v.1.15,2014-04-01 14:57:00,
2014-04-01 10:02:00,67.8,64.8,30.06,East,83,3.0,4.0,90,0.00,,,0.00,Wunderground v.1.15,2014-04-01 15:02:00,
2014-04-01 10:07:00,67.9,64.5,30.06,ENE,61,2.0,5.0,89,0.00,,,0.00,Wunderground v.1.15,2014-04-01 15:07:00,
2014-04-01 10:12:00,68.0,64.6,30.06,SE,143,4.0,6.0,89,0.00,,,0.00,Wunderground v.1.15,2014-04-01 15:12:00,
2014-04-01 10:17:00,68.1,64.7,30.06,SE,134,3.0,6.0,89,0.00,,,0.00,Wunderground v.1.15,2014-04-01 15:17:00,
2014-04-01 10:22:00,68.4,65.0,30.06,ESE,117,5.0,6.0,89,0.00,,,0.00,Wunderground v.1.15,2014-04-01 15:22:00,
2014-04-01 10:27:00,69.0,65.6,30.06,ESE,103,5.0,9.0,89,0.00,,,0.00,Wunderground v.1.15,2014-04-01 15:27:00,
2014-04-01 10:32:00,69.4,65.4,30.06,ESE,117,3.0,6.0,87,0.00,,,0.00,Wunderground v.1.15,2014-04-01 15:32:00,
2014-04-01 10:37:00,69.6,65.2,30.07,SE,140,2.0,6.0,86,0.00,,,0.00,Wunderground v.1.15,2014-04-01 15:37:00,
2014-04-01 10:42:00,70.0,65.3,30.06,South,171,2.0,3.0,85,0.00,,,0.00,Wunderground v.1.15,2014-04-01 15:42:00,
2014-04-01 10:47:00,70.3,65.6,30.06,ENE,67,4.0,4.0,85,0.00,,,0.00,Wunderground v.1.15,2014-04-01 15:47:00,
2014-04-01 10:52:00,70.4,65.7,30.07,ENE,67,1.0,6.0,85,0.00,,,0.00,Wunderground v.1.15,2014-04-01 15:52:00,
2014-04-01 10:57:00,70.5,65.4,30.07,SSW,210,3.0,6.0,84,0.00,,,0.00,Wunderground v.1.15,2014-04-01 15:57:00,
2014-04-01 11:02:00,70.7,65.6,30.07,ESE,123,2.0,3.0,84,0.00,,,0.00,Wunderground v.1.15,2014-04-01 16:02:00,
2014-04-01 11:07:00,71.0,65.9,30.07,ENE,64,4.0,5.0,84,0.00,,,0.00,Wunderground v.1.15,2014-04-01 16:07:00,
2014-04-01 11:12:00,71.1,66.0,30.07,SSE,150,5.0,6.0,84,0.00,,,0.00,Wunderground v.1.15,2014-04-01 16:12:00,
2014-04-01 11:17:00,71.3,65.9,30.07,South,173,3.0,6.0,83,0.00,,,0.00,Wunderground v.1.15,2014-04-01 16:17:00,
2014-04-01 11:22:00,71.5,66.1,30.07,SE,145,2.0,4.0,83,0.00,,,0.00,Wunderground v.1.15,2014-04-01 16:22:00,
2014-04-01 11:27:00,71.6,65.8,30.07,East,94,2.0,5.0,82,0.00,,,0.00,Wunderground v.1.15,2014-04-01 16:27:00,
2014-04-01 11:32:00,72.1,66.3,30.07,South,176,4.0,5.0,82,0.00,,,0.00,Wunderground v.1.15,2014-04-01 16:32:00,
2014-04-01 11:37:00,72.5,66.0,30.06,SSE,153,4.0,8.0,80,0.00,,,0.00,Wunderground v.1.15,2014-04-01 16:37:00,
2014-04-01 11:42:00,72.7,66.5,30.06,SE,134,1.0,4.0,81,0.00,,,0.00,Wunderground v.1.15,2014-04-01 16:42:00,
2014-04-01 11:47:00,73.1,66.2,30.06,ESE,103,4.0,7.0,79,0.00,,,0.00,Wunderground v.1.15,2014-04-01 16:47:00,
2014-04-01 11:52:00,73.6,66.3,30.06,ESE,105,4.0,7.0,78,0.00,,,0.00,Wunderground v.1.15,2014-04-01 16:52:00,
2014-04-01 11:57:00,73.8,66.5,30.06,SSW,198,4.0,7.0,78,0.00,,,0.00,Wunderground v.1.15,2014-04-01 16:57:00,
2014-04-01 12:02:00,74.2,66.1,30.06,ESE,115,8.0,10.0,76,0.00,,,0.00,Wunderground v.1.15,2014-04-01 17:02:00,
2014-04-01 12:07:00,73.9,66.2,30.06,ENE,70,2.0,10.0,77,0.00,,,0.00,Wunderground v.1.15,2014-04-01 17:07:00,
2014-04-01 12:12:00,73.9,66.6,30.06,ESE,117,2.0,7.0,78,0.00,,,0.00,Wunderground v.1.15,2014-04-01 17:12:00,
2014-04-01 12:17:00,74.7,67.4,30.06,SE,141,6.0,8.0,78,0.00,,,0.00,Wunderground v.1.15,2014-04-01 17:17:00,
2014-04-01 12:22:00,75.2,66.3,30.05,NE,56,4.0,11.0,74,0.00,,,0.00,Wunderground v.1.15,2014-04-01 17:22:00,
2014-04-01 12:27:00,75.1,66.2,30.05,NE,56,5.0,11.0,74,0.00,,,0.00,Wunderground v.1.15,2014-04-01 17:27:00,
2014-04-01 12:32:00,74.6,66.1,30.05,SSE,157,5.0,7.0,75,0.00,,,0.00,Wunderground v.1.15,2014-04-01 17:32:00,
2014-04-01 12:37:00,74.7,66.6,30.05,SE,128,6.0,8.0,76,0.00,,,0.00,Wunderground v.1.15,2014-04-01 17:37:00,
2014-04-01 12:42:00,75.4,66.9,30.04,East,84,6.0,8.0,75,0.00,,,0.00,Wunderground v.1.15,2014-04-01 17:42:00,
2014-04-01 12:47:00,75.7,66.8,30.04,ESE,115,5.0,12.0,74,0.00,,,0.00,Wunderground v.1.15,2014-04-01 17:47:00,
2014-04-01 12:52:00,76.1,66.4,30.04,ESE,114,4.0,11.0,72,0.00,,,0.00,Wunderground v.1.15,2014-04-01 17:52:00,
2014-04-01 12:57:00,76.2,66.5,30.04,East,81,2.0,11.0,72,0.00,,,0.00,Wunderground v.1.15,2014-04-01 17:57:00,
2014-04-01 13:02:00,75.9,66.2,30.04,SE,141,4.0,7.0,72,0.00,,,0.00,Wunderground v.1.15,2014-04-01 18:02:00,
2014-04-01 13:07:00,76.2,66.5,30.04,East,95,6.0,7.0,72,0.00,,,0.00,Wunderground v.1.15,2014-04-01 18:07:00,
2014-04-01 13:12:00,76.8,67.5,30.03,ESE,114,3.0,5.0,73,0.00,,,0.00,Wunderground v.1.15,2014-04-01 18:12:00,
2014-04-01 13:17:00,77.0,66.9,30.03,East,98,2.0,8.0,71,0.00,,,0.00,Wunderground v.1.15,2014-04-01 18:17:00,
2014-04-01 13:22:00,76.6,66.9,30.03,ENE,67,2.0,6.0,72,0.00,,,0.00,Wunderground v.1.15,2014-04-01 18:22:00,
2014-04-01 13:27:00,77.0,66.9,30.03,ESE,115,7.0,7.0,71,0.00,,,0.00,Wunderground v.1.15,2014-04-01 18:27:00,
2014-04-01 13:32:00,77.0,66.0,30.03,East,96,1.0,5.0,69,0.00,,,0.00,Wunderground v.1.15,2014-04-01 18:32:00,
2014-04-01 13:37:00,77.0,66.9,30.03,East,97,2.0,6.0,71,0.00,,,0.00,Wunderground v.1.15,2014-04-01 18:37:00,
2014-04-01 13:42:00,77.4,66.4,30.03,ESE,103,4.0,8.0,69,0.00,,,0.00,Wunderground v.1.15,2014-04-01 18:42:00,
2014-04-01 13:47:00,78.0,67.0,30.02,SSE,165,7.0,8.0,69,0.00,,,0.00,Wunderground v.1.15,2014-04-01 18:47:00,
2014-04-01 13:52:00,78.6,66.3,30.02,SSW,194,2.0,9.0,66,0.00,,,0.00,Wunderground v.1.15,2014-04-01 18:52:00,
2014-04-01 13:57:00,78.5,66.2,30.02,SSE,151,2.0,10.0,66,0.00,,,0.00,Wunderground v.1.15,2014-04-01 18:57:00,
2014-04-01 14:02:00,78.3,67.3,30.01,NE,51,6.0,8.0,69,0.00,,,0.00,Wunderground v.1.15,2014-04-01 19:02:00,
2014-04-01 14:07:00,78.8,66.9,30.01,ESE,108,6.0,12.0,67,0.00,,,0.00,Wunderground v.1.15,2014-04-01 19:07:00,
2014-04-01 14:12:00,78.9,67.0,30.00,NE,36,2.0,13.0,67,0.00,,,0.00,Wunderground v.1.15,2014-04-01 19:12:00,
2014-04-01 14:17:00,79.4,66.6,30.00,SSE,158,6.0,13.0,65,0.00,,,0.00,Wunderground v.1.15,2014-04-01 19:17:00,
2014-04-01 14:22:00,79.8,66.5,29.99,SE,128,6.0,11.0,64,0.00,,,0.00,Wunderground v.1.15,2014-04-01 19:22:00,
2014-04-01 14:27:00,80.0,66.7,29.99,SW,230,10.0,12.0,64,0.00,,,0.00,Wunderground v.1.15,2014-04-01 19:27:00,
2014-04-01 14:32:00,80.3,67.5,29.99,ENE,77,5.0,10.0,65,0.00,,,0.00,Wunderground v.1.15,2014-04-01 19:32:00,
2014-04-01 14:37:00,80.0,67.2,29.99,ESE,106,4.0,10.0,65,0.00,,,0.00,Wunderground v.1.15,2014-04-01 19:37:00,
2014-04-01 14:42:00,80.0,66.3,29.99,ENE,70,8.0,11.0,63,0.00,,,0.00,Wunderground v.1.15,2014-04-01 19:42:00,
2014-04-01 14:47:00,79.7,66.9,29.98,ESE,108,2.0,13.0,65,0.00,,,0.00,Wunderground v.1.15,2014-04-01 19:47:00,
2014-04-01 14:52:00,80.2,66.9,29.98,SE,127,6.0,12.0,64,0.00,,,0.00,Wunderground v.1.15,2014-04-01 19:52:00,
2014-04-01 14:57:00,80.6,68.2,29.98,ESE,106,4.0,12.0,66,0.00,,,0.00,Wunderground v.1.15,2014-04-01 19:57:00,
2014-04-01 15:02:00,81.2,68.3,29.98,SE,129,3.0,9.0,65,0.00,,,0.00,Wunderground v.1.15,2014-04-01 20:02:00,
2014-04-01 15:07:00,81.2,66.9,29.97,SSW,195,1.0,12.0,62,0.00,,,0.00,Wunderground v.1.15,2014-04-01 20:07:00,
2014-04-01 15:12:00,81.5,67.7,29.97,SSE,153,4.0,7.0,63,0.00,,,0.00,Wunderground v.1.15,2014-04-01 20:12:00,
2014-04-01 15:17:00,81.9,67.6,29.97,ENE,72,6.0,13.0,62,0.00,,,0.00,Wunderground v.1.15,2014-04-01 20:17:00,
2014-04-01 15:22:00,81.9,67.6,29.96,ESE,115,6.0,8.0,62,0.00,,,0.00,Wunderground v.1.15,2014-04-01 20:22:00,
2014-04-01 15:27:00,82.0,66.7,29.96,ENE,77,6.0,12.0,60,0.00,,,0.00,Wunderground v.1.15,2014-04-01 20:27:00,
2014-04-01 15:32:00,81.5,66.3,29.96,South,190,7.0,13.0,60,0.00,,,0.00,Wunderground v.1.15,2014-04-01 20:32:00,
2014-04-01 15:37:00,80.8,66.6,29.96,NE,40,5.0,14.0,62,0.00,,,0.00,Wunderground v.1.15,2014-04-01 20:37:00,
2014-04-01 15:42:00,81.1,67.3,29.96,SE,134,7.0,12.0,63,0.00,,,0.00,Wunderground v.1.15,2014-04-01 20:42:00,
2014-04-01 15:47:00,81.0,66.3,29.96,East,85,4.0,12.0,61,0.00,,,0.00,Wunderground v.1.15,2014-04-01 20:47:00,
2014-04-01 15:52:00,80.7,66.9,29.95,East,93,10.0,10.0,63,0.00,,,0.00,Wunderground v.1.15,2014-04-01 20:52:00,
2014-04-01 15:57:00,80.7,66.5,29.95,South,169,4.0,13.0,62,0.00,,,0.00,Wunderground v.1.15,2014-04-01 20:57:00,
2014-04-01 16:02:00,81.1,66.8,29.95,SW,229,4.0,9.0,62,0.00,,,0.00,Wunderground v.1.15,2014-04-01 21:02:00,
2014-04-01 16:07:00,81.5,68.1,29.95,ESE,122,4.0,9.0,64,0.00,,,0.00,Wunderground v.1.15,2014-04-01 21:07:00,
2014-04-01 16:12:00,81.1,67.8,29.95,East,89,5.0,10.0,64,0.00,,,0.00,Wunderground v.1.15,2014-04-01 21:12:00,
2014-04-01 16:17:00,80.6,67.7,29.95,East,100,6.0,11.0,65,0.00,,,0.00,Wunderground v.1.15,2014-04-01 21:17:00,
2014-04-01 16:22:00,80.1,67.3,29.95,ESE,105,5.0,7.0,65,0.00,,,0.00,Wunderground v.1.15,2014-04-01 21:22:00,
2014-04-01 16:27:00,79.7,67.3,29.95,SE,135,5.0,11.0,66,0.00,,,0.00,Wunderground v.1.15,2014-04-01 21:27:00,
2014-04-01 16:32:00,79.6,67.7,29.95,SE,125,5.0,8.0,67,0.00,,,0.00,Wunderground v.1.15,2014-04-01 21:32:00,
2014-04-01 16:37:00,79.5,67.6,29.95,ESE,108,3.0,11.0,67,0.00,,,0.00,Wunderground v.1.15,2014-04-01 21:37:00,
2014-04-01 16:42:00,79.8,68.3,29.94,SE,127,1.0,6.0,68,0.00,,,0.00,Wunderground v.1.15,2014-04-01 21:42:00,
2014-04-01 16:47:00,80.6,68.2,29.94,South,186,4.0,7.0,66,0.00,,,0.00,Wunderground v.1.15,2014-04-01 21:47:00,
2014-04-01 16:52:00,80.8,68.4,29.94,ESE,103,6.0,9.0,66,0.00,,,0.00,Wunderground v.1.15,2014-04-01 21:52:00,
2014-04-01 16:58:00,80.2,68.7,29.95,ESE,103,2.0,9.0,68,0.00,,,0.00,Wunderground v.1.15,2014-04-01 21:58:00,
2014-04-01 17:02:00,79.7,68.6,29.94,SE,133,4.0,9.0,69,0.00,,,0.00,Wunderground v.1.15,2014-04-01 22:02:00,
2014-04-01 17:07:00,79.1,68.5,29.94,SE,129,4.0,12.0,70,0.00,,,0.00,Wunderground v.1.15,2014-04-01 22:07:00,
2014-04-01 17:12:00,78.6,68.4,29.94,ENE,67,6.0,9.0,71,0.00,,,0.00,Wunderground v.1.15,2014-04-01 22:12:00,
2014-04-01 17:18:00,78.3,68.5,29.94,East,89,7.0,12.0,72,0.00,,,0.00,Wunderground v.1.15,2014-04-01 22:18:00,
2014-04-01 17:23:00,77.9,68.1,29.94,East,79,4.0,10.0,72,0.00,,,0.00,Wunderground v.1.15,2014-04-01 22:23:00,
2014-04-01 17:28:00,77.7,68.4,29.94,East,87,5.0,10.0,73,0.00,,,0.00,Wunderground v.1.15,2014-04-01 22:28:00,
2014-04-01 17:33:00,77.8,68.0,29.94,East,95,4.0,7.0,72,0.00,,,0.00,Wunderground v.1.15,2014-04-01 22:33:00,
2014-04-01 17:38:00,77.8,68.4,29.94,ESE,112,6.0,10.0,73,0.00,,,0.00,Wunderground v.1.15,2014-04-01 22:38:00,
2014-04-01 17:43:00,77.9,68.5,29.94,East,80,4.0,8.0,73,0.00,,,0.00,Wunderground v.1.15,2014-04-01 22:43:00,
2014-04-01 17:48:00,77.9,68.5,29.94,East,83,8.0,10.0,73,0.00,,,0.00,Wunderground v.1.15,2014-04-01 22:48:00,
2014-04-01 17:53:00,77.7,68.4,29.94,East,82,1.0,10.0,73,0.00,,,0.00,Wunderground v.1.15,2014-04-01 22:53:00,
2014-04-01 17:58:00,77.5,68.2,29.94,ESE,114,3.0,10.0,73,0.00,,,0.00,Wunderground v.1.15,2014-04-01 22:58:00,
2014-04-01 18:03:00,77.5,68.6,29.93,ENE,70,5.0,7.0,74,0.00,,,0.00,Wunderground v.1.15,2014-04-01 23:03:00,
2014-04-01 18:08:00,77.4,68.5,29.94,East,101,3.0,10.0,74,0.00,,,0.00,Wunderground v.1.15,2014-04-01 23:08:00,
2014-04-01 18:13:00,77.4,68.5,29.94,ENE,63,1.0,9.0,74,0.00,,,0.00,Wunderground v.1.15,2014-04-01 23:13:00,
2014-04-01 18:18:00,77.3,68.4,29.93,East,91,6.0,9.0,74,0.00,,,0.00,Wunderground v.1.15,2014-04-01 23:18:00,
2014-04-01 18:23:00,77.2,68.7,29.93,East,85,3.0,7.0,75,0.00,,,0.00,Wunderground v.1.15,2014-04-01 23:23:00,
2014-04-01 18:28:00,77.2,68.3,29.93,ESE,105,2.0,9.0,74,0.00,,,0.00,Wunderground v.1.15,2014-04-01 23:28:00,
2014-04-01 18:33:00,77.1,68.6,29.93,East,85,2.0,9.0,75,0.00,,,0.00,Wunderground v.1.15,2014-04-01 23:33:00,
2014-04-01 18:38:00,77.0,68.1,29.93,East,91,4.0,9.0,74,0.00,,,0.00,Wunderground v.1.15,2014-04-01 23:38:00,
2014-04-01 18:43:00,76.8,68.3,29.93,ENE,72,6.0,8.0,75,0.00,,,0.00,Wunderground v.1.15,2014-04-01 23:43:00,
2014-04-01 18:48:00,76.7,68.2,29.93,ENE,61,3.0,9.0,75,0.00,,,0.00,Wunderground v.1.15,2014-04-01 23:48:00,
2014-04-01 18:53:00,76.6,68.1,29.93,East,89,2.0,8.0,75,0.00,,,0.00,Wunderground v.1.15,2014-04-01 23:53:00,
2014-04-01 18:58:00,76.4,68.3,29.93,ENE,72,5.0,8.0,76,0.00,,,0.00,Wunderground v.1.15,2014-04-01 23:58:00,
2014-04-01 19:03:00,76.2,68.1,29.92,East,86,1.0,8.0,76,0.00,,,0.00,Wunderground v.1.15,2014-04-02 00:03:00,
2014-04-01 19:08:00,76.0,67.9,29.92,ENE,72,2.0,8.0,76,0.00,,,0.00,Wunderground v.1.15,2014-04-02 00:08:00,
2014-04-01 19:13:00,75.8,68.1,29.92,ENE,70,6.0,7.0,77,0.00,,,0.00,Wunderground v.1.15,2014-04-02 00:13:00,
2014-04-01 19:18:00,75.7,68.0,29.92,ENE,72,3.0,8.0,77,0.00,,,0.00,Wunderground v.1.15,2014-04-02 00:18:00,
2014-04-01 19:23:00,75.5,67.8,29.92,ENE,67,1.0,5.0,77,0.00,,,0.00,Wunderground v.1.15,2014-04-02 00:23:00,
2014-04-01 19:28:00,75.3,68.0,29.92,East,101,3.0,6.0,78,0.00,,,0.00,Wunderground v.1.15,2014-04-02 00:28:00,
2014-04-01 19:33:00,75.2,67.9,29.92,ENE,75,3.0,6.0,78,0.00,,,0.00,Wunderground v.1.15,2014-04-02 00:33:00,
2014-04-01 19:38:00,74.9,67.6,29.92,NE,56,4.0,6.0,78,0.00,,,0.00,Wunderground v.1.15,2014-04-02 00:38:00,
2014-04-01 19:43:00,74.8,67.8,29.92,East,81,4.0,6.0,79,0.00,,,0.00,Wunderground v.1.15,2014-04-02 00:43:00,
2014-04-01 19:48:00,74.6,67.7,29.92,ENE,67,3.0,9.0,79,0.00,,,0.00,Wunderground v.1.15,2014-04-02 00:48:00,
2014-04-01 19:53:00,74.4,67.5,29.92,East,93,5.0,7.0,79,0.00,,,0.00,Wunderground v.1.15,2014-04-02 00:53:00,
2014-04-01 19:58:00,74.2,67.6,29.92,ENE,70,2.0,9.0,80,0.00,,,0.00,Wunderground v.1.15,2014-04-02 00:58:00,
2014-04-01 20:03:00,74.0,67.4,29.92,ENE,75,2.0,6.0,80,0.00,,,0.00,Wunderground v.1.15,2014-04-02 01:03:00,
2014-04-01 20:08:00,73.9,67.3,29.92,East,89,6.0,7.0,80,0.00,,,0.00,Wunderground v.1.15,2014-04-02 01:08:00,
2014-04-01 20:13:00,73.9,67.3,29.92,ENE,78,4.0,7.0,80,0.00,,,0.00,Wunderground v.1.15,2014-04-02 01:13:00,
2014-04-01 20:18:00,73.8,67.6,29.92,ESE,110,6.0,7.0,81,0.00,,,0.00,Wunderground v.1.15,2014-04-02 01:18:00,
2014-04-01 20:23:00,73.7,67.5,29.91,ESE,105,2.0,6.0,81,0.00,,,0.00,Wunderground v.1.15,2014-04-02 01:23:00,
2014-04-01 20:28:00,73.5,67.3,29.91,East,93,5.0,7.0,81,0.00,,,0.00,Wunderground v.1.15,2014-04-02 01:28:00,
2014-04-01 20:33:00,73.5,67.3,29.91,East,86,2.0,7.0,81,0.00,,,0.00,Wunderground v.1.15,2014-04-02 01:33:00,
2014-04-01 20:38:00,73.4,67.6,29.91,East,80,3.0,10.0,82,0.00,,,0.00,Wunderground v.1.15,2014-04-02 01:38:00,
2014-04-01 20:43:00,73.4,67.6,29.92,ESE,106,3.0,6.0,82,0.00,,,0.00,Wunderground v.1.15,2014-04-02 01:43:00,
2014-04-01 20:48:00,73.3,67.5,29.92,ESE,105,4.0,11.0,82,0.00,,,0.00,Wunderground v.1.15,2014-04-02 01:48:00,
2014-04-01 20:53:00,73.5,67.7,29.92,ESE,120,9.0,13.0,82,0.00,,,0.00,Wunderground v.1.15,2014-04-02 01:53:00,
2014-04-01 20:58:00,73.6,67.8,29.92,East,101,4.0,13.0,82,0.00,,,0.00,Wunderground v.1.15,2014-04-02 01:58:00,
2014-04-01 21:03:00,73.6,67.8,29.92,East,91,6.0,9.0,82,0.00,,,0.00,Wunderground v.1.15,2014-04-02 02:03:00,
2014-04-01 21:08:00,73.6,67.8,29.92,NE,51,9.0,14.0,82,0.00,,,0.00,Wunderground v.1.15,2014-04-02 02:08:00,
2014-04-01 21:13:00,73.7,67.9,29.92,ESE,105,7.0,12.0,82,0.00,,,0.00,Wunderground v.1.15,2014-04-02 02:13:00,
2014-04-01 21:18:00,73.7,67.9,29.92,East,84,3.0,20.0,82,0.00,,,0.00,Wunderground v.1.15,2014-04-02 02:18:00,
2014-04-01 21:23:00,73.7,67.9,29.92,East,90,5.0,14.0,82,0.00,,,0.00,Wunderground v.1.15,2014-04-02 02:23:00,
2014-04-01 21:28:00,73.5,68.0,29.92,ENE,74,4.0,14.0,83,0.00,,,0.00,Wunderground v.1.15,2014-04-02 02:28:00,
2014-04-01 21:33:00,73.3,67.8,29.92,ENE,61,7.0,15.0,83,0.00,,,0.00,Wunderground v.1.15,2014-04-02 02:33:00,
2014-04-01 21:38:00,73.2,67.7,29.93,ENE,58,6.0,15.0,83,0.00,,,0.00,Wunderground v.1.15,2014-04-02 02:38:00,
2014-04-01 21:43:00,73.0,67.9,29.93,SE,131,4.0,19.0,84,0.00,,,0.00,Wunderground v.1.15,2014-04-02 02:43:00,
2014-04-01 21:48:00,72.8,67.7,29.94,ESE,112,4.0,19.0,84,0.00,,,0.00,Wunderground v.1.15,2014-04-02 02:48:00,
2014-04-01 21:53:00,72.7,67.6,29.94,SE,136,4.0,10.0,84,0.00,,,0.00,Wunderground v.1.15,2014-04-02 02:53:00,
2014-04-01 21:58:00,72.6,67.5,29.94,East,91,4.0,10.0,84,0.00,,,0.00,Wunderground v.1.15,2014-04-02 02:58:00,
2014-04-01 22:03:00,72.4,67.3,29.94,SE,146,6.0,10.0,84,0.00,,,0.00,Wunderground v.1.15,2014-04-02 03:03:00,
2014-04-01 22:08:00,72.2,67.4,29.94,East,86,5.0,17.0,85,0.00,,,0.00,Wunderground v.1.15,2014-04-02 03:08:00,
2014-04-01 22:13:00,72.0,67.2,29.94,NE,35,1.0,12.0,85,0.00,,,0.00,Wunderground v.1.15,2014-04-02 03:13:00,
2014-04-01 22:17:00,71.9,67.1,29.94,ESE,103,5.0,14.0,85,0.00,,,0.00,Wunderground v.1.15,2014-04-02 03:17:00,
2014-04-01 22:23:00,71.7,67.3,29.94,ENE,64,6.0,8.0,86,0.00,,,0.00,Wunderground v.1.15,2014-04-02 03:23:00,
2014-04-01 22:28:00,71.5,67.1,29.95,ESE,108,4.0,13.0,86,0.00,,,0.00,Wunderground v.1.15,2014-04-02 03:28:00,
2014-04-01 22:33:00,71.4,67.0,29.95,East,96,2.0,6.0,86,0.00,,,0.00,Wunderground v.1.15,2014-04-02 03:33:00,
2014-04-01 22:38:00,71.2,66.8,29.95,ESE,105,3.0,9.0,86,0.00,,,0.00,Wunderground v.1.15,2014-04-02 03:38:00,
2014-04-01 22:43:00,71.1,67.0,29.95,East,89,4.0,10.0,87,0.00,,,0.00,Wunderground v.1.15,2014-04-02 03:43:00,
2014-04-01 22:48:00,71.0,66.9,29.95,ESE,122,3.0,10.0,87,0.00,,,0.00,Wunderground v.1.15,2014-04-02 03:48:00,
2014-04-01 22:53:00,70.9,66.8,29.95,ESE,108,1.0,6.0,87,0.00,,,0.00,Wunderground v.1.15,2014-04-02 03:53:00,
2014-04-01 22:58:00,70.7,66.6,29.95,NE,38,3.0,8.0,87,0.00,,,0.00,Wunderground v.1.15,2014-04-02 03:58:00,
2014-04-01 23:01:00,70.7,67.0,29.96,East,81,4.0,5.0,88,0.00,,,0.00,Wunderground v.1.15,2014-04-02 04:01:00,
2014-04-01 23:02:00,70.7,67.0,29.95,SE,145,3.0,7.0,88,0.00,,,0.00,Wunderground v.1.15,2014-04-02 04:02:00,
2014-04-01 23:07:00,70.6,66.9,29.95,East,95,6.0,8.0,88,0.00,,,0.00,Wunderground v.1.15,2014-04-02 04:07:00,
2014-04-01 23:12:00,70.5,66.8,29.95,East,100,3.0,6.0,88,0.00,,,0.00,Wunderground v.1.15,2014-04-02 04:12:00,
2014-04-01 23:17:00,70.4,66.7,29.95,SE,143,3.0,9.0,88,0.00,,,0.00,Wunderground v.1.15,2014-04-02 04:17:00,
2014-04-01 23:22:00,70.4,66.7,29.95,NE,49,2.0,8.0,88,0.00,,,0.00,Wunderground v.1.15,2014-04-02 04:22:00,
2014-04-01 23:27:00,70.3,66.6,29.95,ESE,112,6.0,8.0,88,0.00,,,0.00,Wunderground v.1.15,2014-04-02 04:27:00,
2014-04-01 23:32:00,70.3,66.6,29.96,East,80,2.0,5.0,88,0.00,,,0.00,Wunderground v.1.15,2014-04-02 04:32:00,
2014-04-01 23:37:00,70.2,66.8,29.96,ESE,115,2.0,6.0,89,0.00,,,0.00,Wunderground v.1.15,2014-04-02 04:37:00,
2014-04-01 23:42:00,70.0,66.6,29.96,SE,130,6.0,7.0,89,0.00,,,0.00,Wunderground v.1.15,2014-04-02 04:42:00,
2014-04-01 23:47:00,70.0,66.6,29.96,SE,125,5.0,9.0,89,0.00,,,0.00,Wunderground v.1.15,2014-04-02 04:47:00,
2014-04-01 23:52:00,70.0,66.6,29.96,East,95,3.0,5.0,89,0.00,,,0.00,Wunderground v.1.15,2014-04-02 04:52:00,
2014-04-01 23:57:00,70.0,66.6,29.96,SE,138,3.0,8.0,89,0.00,,,0.00,Wunderground v.1.15,2014-04-02 04:57:00,